TIME,DELAY(SENSOR),PRES,OXYGEN,RAWTEMP,T(OPTODE),TCPHASE,FLUOR,BETA(BETA700),BETA(BETA412),BETA(BETA440),CDOM,C(CSC),ED(ED411.90),ED(ED443.80),ED(ED489.40),ED(ED554.70),LU(LU412.20),LU(LU443.80),LU(LU489.40),LU(LU555.00),COMP,TILTX,TILTY,CHECK
1364250219,5804,868.7399902343750000,181.4754028320312500,480.0039978027344000,8.1485509872436520,38.7519607543945300,85,1102,95,78,79,11400,2146964736,2147516187,2147293449,2147507437,2147088704,2146919634,2147715227,2147123328,2244,-1,8,11987
1364253815,5807,977.4000244140625000,229.1851043701172000,538.8524780273438000,6.3188571929931640,36.9068908691406250,87,1112,95,77,79,11401,2146963145,2147522770,2147300205,2147521170,2147090294,2146916123,2147728777,2147122642,1035,0,8,7749
1364257415,5806,1005.0100097656250000,238.9048004150390600,547.3439941406250000,6.0527820587158200,36.5496711730957000,86,1122,96,78,79,11404,2146965220,2147519268,2147300900,2147520877,2147090422,2146915382,2147730185,2147122669,3550,-1,8,20553
1364261015,5807,1010.7299804687500000,241.3202972412109400,548.3132934570312000,6.0223751068115230,36.4430809020996100,86,1125,99,75,79,11400,2146963053,2147515346,2147299254,2147521654,2147087497,2146918976,2147731172,2147121810,3396,-1,8,42334
1364264615,5808,1004.5800170898438000,247.1381072998047000,554.4893188476562000,5.8284487724304200,36.2628707885742200,89,1132,97,79,79,11394,2146964416,2147519506,2147299584,2147526080,2147089069,2146917010,2147732964,2147124690,139,0,8,1946
1364268215,5808,1007.9199829101562000,252.3627014160156200,557.1625976562500000,5.7444171905517580,36.0551300048828100,87,1134,97,78,80,11346,2146963739,2147516598,2147299145,2147524096,2147087515,2146913380,2147733622,2147122130,617,0,8,21540
1364271815,5804,1001.5300292968750000,259.5996093750000000,562.1303710937500000,5.5880990028381350,35.7993698120117200,88,1141,98,77,81,11342,2146968155,2147517284,2147300397,2147524690,2147089316,2146916736,2147731821,2147121060,3292,-1,8,52175
1364275415,5752,1013.4500122070312000,254.8032073974609400,557.4854736328125000,5.7342619895935060,35.9425888061523440,88,1143,96,78,80,11341,2146964059,2147516260,2147300105,2147524068,2147089673,2146919076,2147732635,2147124626,2820,-1,8,32374
1364279015,5807,1015.0000000000000000,253.9185943603515600,557.2780761718750000,5.7407860755920410,35.9814910888671900,86,1142,97,79,80,11341,2146964114,2147518683,2147299337,2147524818,2147086601,2146916918,2147724790,2147122194,3040,-1,8,53619
1364282615,5807,1011.2100219726562000,252.0966033935547000,557.0883178710938000,5.7467541694641110,36.0665092468261700,88,1142,97,78,80,11339,2146962139,2147519332,2147299931,2147522934,2147089856,2146914806,2147730212,2147122075,3374,-1,8,42245
1364286215,5808,1010.1199951171875000,257.0151062011719000,560.3427734375000000,5.6443729400634770,35.8889389038085940,89,1145,101,78,79,11341,2146966281,2147517083,2147299712,2147522212,2147086957,2146918674,2147729097,2147117549,649,-1,8,26364
1364289815,5806,1015.3900146484375000,257.5682067871094000,561.3801879882812000,5.6117172241210940,35.8815116882324200,87,1144,97,78,80,11338,2146963474,2147517147,2147301357,2147524370,2147086390,2146919771,2147733568,2147122761,3559,-1,8,47313
1364293415,5808,1021.0999755859375000,255.1772003173828000,558.4514770507812000,5.7038779258728030,35.9424400329589840,87,1146,103,77,79,11336,2146962413,2147518134,2147299245,2147526189,2147083154,2146918299,2147730148,2147122395,828,-1,8,62098
1364297015,5807,1011.4600219726562000,253.5722045898437500,562.3488769531250000,5.5812230110168460,36.0908393859863300,87,1151,97,78,79,11327,2146964050,2147520630,2147299684,2147522221,2147083008,2146913956,2147728841,2147120109,3318,-1,8,33153
1364300615,5804,1027.3000488281250000,258.2710876464844000,560.6187133789062000,5.6356911659240720,35.8345718383789060,88,1147,98,78,80,11325,2146965366,2147526509,2147300653,2147523876,2147087588,2146916973,2147731282,2147120804,3515,-1,8,25008
1364304215,5806,1013.1500244140625000,255.5283050537109400,562.1109008789062000,5.5887150764465330,35.9919891357421900,88,1150,97,77,80,11325,2146964946,2147519963,2147300589,2147523730,2147088320,2146917092,2147732269,2147120667,3455,-1,9,7840
1364307815,5803,1009.2100219726562000,257.5403137207031000,564.8253784179688000,5.5032138824462890,35.9458618164062500,89,1150,97,80,80,11321,2146956562,2147521920,2147301659,2147523547,2147087542,2146917915,2147729252,2147118866,2930,-1,8,19143
1364311415,5802,1000.0200195312500000,261.3460083007812500,565.3771972656250000,5.4858279228210450,35.7762718200683600,87,1151,99,79,79,11319,2146966336,2147520731,2147303012,2147524416,2147086345,2146920320,2147732726,2147117522,2145,0,8,27405
1364315015,5808,1010.6400146484375000,262.1632995605469000,565.8643798828125000,5.4704718589782715,35.7470703125000000,89,1153,99,77,79,11318,2146968786,2147520283,2147300809,2147525248,2147088493,2146916096,2147727177,2147123510,3462,-1,8,23803
1364318615,5805,1011.3900146484375000,263.0380859375000000,565.7982177734375000,5.4725627899169920,35.7049713134765600,89,1170,96,79,80,11317,2146965284,2147522944,2147298669,2147524864,2147088594,2146915684,2147728082,2147121856,1080,-1,8,2691
1364322215,5809,1007.4400024414062000,261.0364074707031000,565.9302978515625000,5.4683971405029300,35.8010406494140600,89,1154,99,79,80,11308,2146962779,2147514020,2147304612,2147525366,2147089892,2146919469,2147730541,2147121252,38,-1,8,57739
1364325815,5808,1014.1199951171875000,262.2456054687500000,565.9926757812500000,5.4664311408996580,35.7460403442382800,89,1148,96,78,79,11307,2146963291,2147517504,2147301677,2147522861,2147090898,2146919277,2147737993,2147117714,30,0,8,44716
1364329415,5807,1001.4299926757812000,261.8577880859375000,566.7932128906250000,5.4411978721618650,35.7784118652343750,89,1153,98,79,79,11306,2146967277,2147519204,2147304877,2147523117,2147087049,2146916269,2147731163,2147117686,905,-1,8,16756
1364333015,5808,1010.3099975585938000,266.1348876953125000,570.0944213867188000,5.3370819091796875,35.6410408020019500,88,1153,97,79,79,11261,2146963721,2147520338,2147301440,2147523062,2147090715,2146909897,2147734957,2147119963,3262,-1,8,49400
1364336615,5805,1013.7199707031250000,266.1498107910156000,567.5867919921875000,5.4161758422851560,35.5942192077636700,87,1157,99,78,80,11258,2146963556,2147518043,2147305014,2147526692,2147089298,2146915922,2147733714,2147121526,2502,-1,8,1926
1364340215,5806,1015.7199707031250000,265.5187988281250000,567.4552001953125000,5.4203262329101560,35.6207809448242200,88,1156,97,80,80,11256,2146965860,2147520713,2147301101,2147525330,2147089252,2146916342,2147732242,2147120905,2776,0,8,26710
1364343815,5807,1017.0499877929688000,264.4977111816406000,566.0468750000000000,5.4647240638732910,35.6419486999511700,88,1161,97,78,79,11260,2146965293,2147515730,2147298797,2147525120,2147090349,2146916818,2147732864,2147120018,3110,-1,8,2417
1364347415,5806,1015.9400024414062000,264.6950073242187500,567.0601196289062000,5.4327831268310550,35.6514396667480500,89,1161,96,78,78,11259,2146963492,2147520676,2147301540,2147525906,2147087634,2146917357,2147734134,2147122907,3066,-1,8,35426
1364351015,5804,1015.7500000000000000,263.9955139160156000,567.3563232421875000,5.4234452247619630,35.6892204284668000,89,1164,101,77,80,11250,2146965275,2147521398,2147298898,2147523849,2147088484,2146920557,2147731721,2147121508,3297,0,8,5788
1364354615,5803,1020.6799926757812000,265.5538940429687500,567.3663940429688000,5.4231262207031250,35.6180000305175800,89,1167,97,78,79,11249,2146963922,2147521371,2147299337,2147523821,2147088027,2146913481,2147733046,2147117741,3292,-1,8,60325
1364358215,5807,1009.2600097656250000,265.1534118652344000,567.7128295898438000,5.4122052192687990,35.6425781250000000,89,1167,98,79,80,11253,2146965531,2147517705,2147299145,2147526656,2147090953,2146921453,2147730486,2147119296,154,-1,8,50505
1364361815,5808,1015.8099975585938000,264.6535034179687500,567.2081298828125000,5.4281158447265625,35.6567192077636700,89,1167,97,80,79,11251,2146965129,2147520100,2147302052,2147524992,2147089746,2146914934,2147730514,2147120667,271,0,8,61808
1364365415,5808,1008.5100097656250000,269.6257934570312500,570.7473754882812000,5.3164792060852050,35.4937896728515600,88,1170,97,78,79,11242,2146966162,2147518409,2147300105,2147524873,2147086189,2146918244,2147730971,2147120694,527,-1,8,6263
1364369015,5805,1014.7299804687500000,268.9790039062500000,569.7310791015625000,5.3485431671142580,35.5042800903320300,89,1182,97,78,80,11241,2146963748,2147517184,2147299556,2147524480,2147086957,2146917970,2147731044,2147117805,3263,-1,8,19049
1364372615,5807,1019.7600097656250000,265.4577941894531000,566.9926757812500000,5.4349079132080080,35.6156196594238300,90,1195,97,79,80,11239,2146965028,2147522075,2147302025,2147524534,2147086080,2146916169,2147730377,2147116187,133,-1,8,19307
1364376215,5805,1009.4299926757812000,264.4154968261719000,567.3928222656250000,5.4222931861877440,35.6703300476074200,88,1174,97,79,80,11237,2146966418,2147520356,2147299510,2147522313,2147084754,2146917394,2147726390,2147119789,2485,-1,8,32687
1364379815,5805,1018.5499877929688000,267.4881896972656000,568.9948120117188000,5.3717751502990720,35.5591011047363300,91,1182,99,77,79,11235,2146964132,2147517458,2147304749,2147524077,2147084059,2146917851,2147729490,2147121600,3429,-1,8,29437
1364383415,5803,1017.0800170898438000,263.1502990722656000,566.9874267578125000,5.4350738525390625,35.7216606140136700,88,1176,97,78,79,11233,2146962806,2147520859,2147300233,2147524434,2147088594,2146916114,2147730907,2147120475,3462,0,8,47060
1364387015,5804,1016.0300292968750000,264.7267150878906000,567.1765747070312000,5.4291110038757320,35.6524391174316400,88,1180,97,79,80,11235,2146964141,2147520512,2147301129,2147524763,2147090761,2146916681,2147730441,2147121773,3560,-1,8,11430
1364390615,5809,1017.2800292968750000,265.6169128417969000,567.9429931640625000,5.4049448966979980,35.6253509521484400,108,1556,98,78,79,11224,2146961563,2147518409,2147300086,2147520731,2147087140,2146917083,2147730468,2147118948,338,0,8,31151
1364394215,5806,1009.3599853515625000,262.8411865234375000,567.9639282226562000,5.4042868614196780,35.7539291381835940,108,1583,97,78,80,11223,2146963081,2147521947,2147300050,2147526528,2147087305,2146917019,2147731382,2147116827,2963,-1,8,16905
1364394955,5804,1010.9899902343750000,265.7244873046875000,569.2640991210938000,5.3632769584655760,35.6449508666992200,91,1223,97,77,78,11309,2146960768,2147522715,2147302692,2147523995,2147091501,2146917494,2147730221,2147120539,305,0,8,16391
